Weather History for KNFL - July, 2012

Change the Weather History Date:

Friday, July 13, 2012

  Actual Average Record
Temperature  
Mean Temperature 86 °F -  
Max Temperature 100 °F 91 °F 105 °F (2014)
Min Temperature 73 °F 53 °F 39 °F (1981)
Cooling Degree Days 20    
Growing Degree Days 36 (Base 50)    
Moisture  
Dew Point 48 °F    
Average Humidity 30    
Maximum Humidity 47    
Minimum Humidity 14    
Precipitation  
Precipitation 0.00 in - - ()
Sea Level Pressure  
Sea Level Pressure 29.87 in    
Wind  
Wind Speed 8 mph (SSE)    
Max Wind Speed 22 mph    
Max Gust Speed 55 mph    
Visibility 10 miles    
Events Rain , Thunderstorm    
Averages and records for this station are not official NWS values.
T = Trace of Precipitation, MM = Missing Value Source: NWS Daily Summary

Daily Weather History Graph

Daily Weather History Graph

Search for Another Location

Airport or City:

Trip Planner

Search our weather history database for the weather conditions in past years. The results will help you decide how hot, cold, wet, or windy it might be!

Date:

Astronomy

Jul. 13, 2012 Rise Set
Actual Time 5:39 AM PDT 8:21 PM PDT
Civil Twilight 5:07 AM PDT 8:53 PM PDT
Nautical Twilight 4:28 AM PDT 9:32 PM PDT
Astronomical Twilight 3:43 AM PDT 10:17 PM PDT
Moon 1:18 AM PDT (7/13) 3:55 PM PDT (7/13)
Length of Visible Light 15h 45m
Length of Day
14h 42m
Waning Crescent, 25% of the Moon is Illuminated
Jul 13
Waning Crescent
Jul 18
New
Jul 26
First Quarter
Aug 1
Full
Aug 9
Last Quarter

Hourly Weather History & Observations

Time (PDT) Temp. Heat Index Dew Point Humidity Pressure Visibility Wind Dir Wind Speed Gust Speed Precip Events Conditions
12:56 AM 80.1 °F - 41.0 °F 25% 29.90 in 10.0 mi WNW 3.5 mph - N/A   Clear
1:56 AM 79.0 °F - 39.9 °F 25% 29.91 in 10.0 mi Calm Calm - N/A   Mostly Cloudy
2:56 AM 75.0 °F - 51.1 °F 43% 29.92 in 10.0 mi SSE 5.8 mph - 0.00 in   Overcast
3:56 AM 79.0 °F - 52.0 °F 39% 29.93 in 7.0 mi SE 10.4 mph 55.2 mph N/A   Scattered Clouds
4:56 AM 75.9 °F - 52.0 °F 43% 29.91 in 9.0 mi SE 9.2 mph - N/A   Scattered Clouds
5:56 AM 73.9 °F - 52.0 °F 46% 29.91 in 10.0 mi ESE 3.5 mph - N/A   Clear
6:21 AM 75.2 °F - 53.6 °F 47% 29.99 in 10.0 mi SSE 6.9 mph - N/A   Overcast
6:56 AM 78.1 °F - 53.1 °F 42% 29.90 in 8.0 mi South 6.9 mph - N/A   Overcast
7:56 AM 82.0 °F - 52.0 °F 35% 29.90 in 10.0 mi South 11.5 mph - N/A   Mostly Cloudy
8:56 AM 82.0 °F 81.2 °F 53.1 °F 37% 29.90 in 10.0 mi South 8.1 mph - N/A   Mostly Cloudy
9:56 AM 88.0 °F - 51.1 °F 28% 29.90 in 10.0 mi SSE 10.4 mph - N/A   Mostly Cloudy
10:56 AM 91.0 °F - 50.0 °F 24% 29.89 in 10.0 mi South 11.5 mph - N/A   Mostly Cloudy
11:56 AM 91.0 °F - 48.9 °F 23% 29.88 in 10.0 mi South 3.5 mph - N/A   Mostly Cloudy
12:56 PM 95.0 °F - 46.9 °F 19% 29.86 in 10.0 mi Calm Calm - N/A   Mostly Cloudy
1:56 PM 97.0 °F - 46.0 °F 18% 29.83 in 10.0 mi Calm Calm - N/A   Mostly Cloudy
2:56 PM 98.1 °F - 43.0 °F 15% 29.81 in 10.0 mi NW 8.1 mph - N/A   Mostly Cloudy
3:56 PM 97.0 °F - 41.0 °F 14% 29.79 in 10.0 mi Calm Calm - N/A   Mostly Cloudy
4:56 PM 91.0 °F - 46.0 °F 21% 29.79 in 10.0 mi South 17.3 mph 24.2 mph N/A   Mostly Cloudy
5:07 PM 89.6 °F - 51.8 °F 27% 29.85 in 10.0 mi South 13.8 mph 23.0 mph 0.00 in Rain Light Rain
5:32 PM 89.6 °F - 51.8 °F 27% 29.85 in 10.0 mi South 9.2 mph - 0.00 in   Mostly Cloudy
5:56 PM 91.9 °F - 44.1 °F 19% 29.78 in 10.0 mi SSE 12.7 mph 20.7 mph 0.00 in   Mostly Cloudy
6:56 PM 82.0 °F - 51.1 °F 34% 29.80 in 10.0 mi SE 21.9 mph 32.2 mph N/A   Clear
7:03 PM 82.4 °F - 50.0 °F 32% 29.87 in 10.0 mi SE 19.6 mph 28.8 mph N/A Thunderstorm Thunderstorm
7:56 PM 87.1 °F - 44.1 °F 22% 29.81 in 10.0 mi SSW 16.1 mph 21.9 mph N/A   Mostly Cloudy
8:56 PM 84.9 °F - 41.0 °F 21% 29.84 in 10.0 mi East 9.2 mph 19.6 mph N/A   Mostly Cloudy
9:56 PM 79.0 °F - 46.9 °F 32% 29.89 in 10.0 mi SSE 16.1 mph 23.0 mph N/A   Scattered Clouds
10:56 PM 75.9 °F - 48.9 °F 38% 29.91 in 10.0 mi South 15.0 mph - N/A   Clear
11:56 PM 73.9 °F - 48.9 °F 41% 29.90 in 10.0 mi South 19.6 mph 23.0 mph N/A   Clear